Temperature
19 19 19 19 19 19 19 19 19 19 19 19 19 19 19 19 18 18 18 18 18 18 18 18 18 18 18 18 18 18 18 18 18 18 18 17 17 17 17 18 18 17 17
20 19 19 19 19 19 19 19 19 19 19 19 19 19 18 18 18 18 18 18 18 18 18 18 18 18 18 18 18 18 18 18 18 17 17 17 17 17 17 17 17 17 17
20 20 19 19 19 19 19 19 19 19 19 19 18 18 18 18 18 18 18 18 18 18 18 18 18 18 18 17 17 17 17 17 17 17 17 17 17 17 17 17 17 17 17
20 20 20 19 19 19 19 19 19 19 18 18 18 18 18 18 18 18 18 18 18 18 18 18 18 18 18 17 17 17 17 17 17 17 17 17 17 17 17 17 17 17 17
20 20 20 19 19 19 19 19 19 19 18 18 18 18 18 18 18 18 18 18 18 18 18 18 18 18 18 17 17 17 17 17 17 17 17 17 17 17 17 17 17 17 17
20 20 20 20 19 19 19 19 19 19 18 18 18 18 18 18 18 18 18 18 18 18 18 18 18 18 17 17 17 17 17 17 17 17 17 17 17 17 17 17 17 17 17
21 20 20 20 20 19 19 19 19 19 19 18 18 18 18 18 18 18 18 18 18 18 18 18 18 18 17 17 17 17 17 17 17 17 17 17 17 17 17 17 17 17 17
21 21 20 20 20 19 19 19 19 19 19 19 18 18 18 18 18 18 18 18 18 18 18 18 18 18 17 17 17 17 17 17 17 17 17 17 17 17 17 17 17 17 17
21 21 20 20 20 19 19 19 19 19 19 18 18 18 18 18 18 18 18 18 18 18 18 18 18 18 17 17 17 17 17 17 17 17 17 17 17 17 17 17 17 17 17
20 20 20 20 20 20 19 19 19 19 19 18 18 18 18 18 18 18 18 18 18 18 18 18 18 18 17 17 17 17 17 17 17 17 18 18 17 17 17 17 17 17 17
20 20 20 20 20 19 19 19 19 19 18 18 18 18 18 18 18 18 18 18 18 18 18 18 18 18 17 17 17 17 17 17 17 17 18 18 17 17 17 17 17 17 17
20 19 19 20 19 19 19 19 19 19 18 18 18 18 18 18 18 18 18 18 18 18 18 18 18 18 18 17 17 17 17 18 17 17 18 18 17 17 17 17 17 17 17
20 20 19 19 19 19 19 19 19 19 18 18 18 18 18 18 18 18 18 18 18 18 18 18 18 18 18 18 18 18 18 18 18 17 17 17 17 17 17 17 17 17 17
20 20 19 19 19 19 19 19 19 19 18 18 18 18 18 18 18 18 18 18 18 18 18 18 18 18 18 18 18 18 18 18 17 17 18 17 18 17 17 17 17 17 17
20 20 20 19 19 19 19 19 18 18 18 18 18 18 18 18 18 18 18 18 18 18 18 18 18 18 18 18 18 18 18 18 17 18 18 18 17 17 17 17 17 17 17
20 20 20 19 19 19 19 19 19 18 18 18 18 18 18 18 18 18 18 18 18 18 18 18 18 18 18 18 18 18 18 18 18 18 18 18 17 17 17 17 17 17 17
20 20 20 20 19 19 19 19 19 18 18 18 18 18 18 18 18 18 18 18 18 18 18 18 18 17 17 18 18 18 18 18 18 18 18 18 17 17 17 17 17 17 17
21 20 20 20 19 19 19 19 19 18 18 18 18 18 18 18 18 18 18 18 18 18 18 18 18 18 18 18 18 18 18 17 18 18 18 17 17 17 17 17 17 17 17
21 20 20 20 20 19 19 19 18 18 18 18 18 18 18 18 18 18 18 18 18 18 18 18 18 18 18 18 18 18 18 18 18 18 18 17 17 17 17 17 17 17 17
21 20 20 20 19 19 19 19 19 18 18 18 18 18 18 18 18 18 18 18 18 18 18 18 18 18 18 18 17 18 18 18 18 18 18 18 18 17 17 17 17 17 17
21 20 20 20 19 19 19 19 19 18 18 18 18 18 18 18 18 18 18 18 18 18 18 18 18 18 18 18 17 18 18 18 18 18 18 18 18 17 17 17 17 17 17
21 20 20 20 19 19 19 19 19 18 18 18 18 18 18 18 18 18 18 18 18 18 18 18 18 18 18 18 17 17 17 18 18 18 18 18 18 17 17 17 17 17 17
21 20 20 20 19 19 19 19 18 18 18 18 18 18 18 18 18 18 18 18 18 18 18 18 18 18 18 18 17 17 17 17 18 18 18 17 17 17 17 17 17 17 17
21 20 20 20 19 19 19 19 19 18 18 18 18 18 18 18 18 18 18 18 18 18 18 18 17 17 17 17 17 17 18 18 17 17 17 17 17 17 17 17 17 17 17
21 20 20 20 19 19 19 18 18 18 18 18 18 18 18 18 18 18 18 18 18 18 18 17 17 17 17 17 17 17 17 17 17 17 17 17 17 17 17 17 17 17 17
21 20 20 20 19 19 19 18 18 18 18 18 18 18 18 18 18 18 18 17 17 17 17 17 17 17 17 17 17 17 17 17 17 17 17 17 17 17 16 16 16 16 16
Wind_Speed
4 7 13 14 14 14 15 14 14 15 15 16 16 16 17 17 17 17 17 17 17 18 18 17 17 17 17 18 18 18 19 19 18 18 17 17 17 17 17 18 18 16 18
8 10 14 14 14 14 14 14 14 15 15 15 16 16 16 16 16 16 16 16 17 17 17 17 16 16 16 17 17 18 18 18 18 17 17 16 16 16 16 17 16 15 17
10 11 14 14 15 14 14 14 14 14 14 15 15 15 15 15 15 15 16 16 16 16 16 16 15 15 15 15 16 16 17 17 17 17 15 13 15 16 16 16 17 17 17
12 12 13 15 15 14 14 14 14 14 14 14 14 14 15 15 15 15 15 15 15 15 15 15 14 14 14 14 14 15 15 15 15 15 12 12 13 15 15 16 16 17 17
10 12 14 15 15 14 14 13 13 13 14 14 14 14 14 14 14 14 14 14 14 14 14 13 13 13 13 12 13 13 13 13 14 13 12 12 13 15 15 15 16 16 16
9 12 15 15 15 14 14 13 13 13 13 13 13 13 14 14 14 14 14 13 13 13 12 12 12 12 12 12 12 12 11 11 12 12 12 12 12 14 14 15 15 15 15
10 11 14 15 15 14 13 13 13 13 13 13 13 13 13 13 13 13 13 12 12 12 11 11 11 11 11 11 11 11 10 12 12 12 11 12 12 14 14 15 15 15 14
13 12 14 16 15 14 13 13 12 12 12 12 12 12 12 12 13 12 12 12 11 10 10 10 10 10 10 10 10 9 10 12 12 11 11 12 14 14 14 14 14 14 13
12 11 10 13 14 14 13 12 12 12 12 12 12 11 11 12 12 11 11 11 10 10 9 9 9 8 8 8 7 7 9 10 11 11 11 11 14 14 14 14 13 13 13
9 8 8 10 11 11 11 12 12 12 11 11 11 11 11 11 11 10 9 10 10 9 8 8 7 6 6 6 6 7 8 10 10 11 11 12 15 14 14 14 13 13 13
9 7 7 8 9 10 10 11 11 11 11 10 10 11 10 8 8 8 8 9 9 8 7 5 4 4 3 3 4 5 6 8 10 10 11 14 15 14 14 14 13 13 12
10 8 6 7 8 9 8 9 8 8 9 8 8 8 8 7 7 7 8 8 7 6 5 3 3 2 1 1 1 3 5 8 10 9 11 15 15 14 14 14 13 13 12
10 10 9 8 8 8 6 8 6 6 7 7 9 9 8 7 6 6 5 5 5 4 3 2 2 2 2 1 1 2 5 7 9 9 11 15 14 14 14 14 14 13 12
9 9 9 8 6 6 7 6 6 5 5 5 8 10 8 5 5 5 4 4 4 3 3 3 2 3 3 3 3 3 5 8 9 9 12 14 14 14 14 14 13 13 13
9 8 8 8 7 6 6 5 6 5 6 6 7 9 9 6 5 5 4 4 5 5 4 3 3 2 2 3 3 4 6 8 10 10 11 14 14 14 14 14 14 13 13
9 8 7 7 6 6 5 4 4 6 7 6 5 7 9 8 6 5 4 4 5 6 6 5 4 3 2 2 2 3 5 8 10 11 11 13 14 14 15 14 14 14 13
9 8 7 7 6 6 5 4 4 6 6 5 5 7 8 8 8 6 4 4 5 6 5 3 3 2 2 2 2 3 4 6 8 10 11 11 12 14 15 15 15 15 14
9 8 7 7 6 5 4 4 3 5 5 5 6 6 7 8 8 6 3 3 5 5 4 2 2 1 1 1 1 2 3 5 7 9 11 11 11 11 14 16 16 16 16
9 8 6 5 5 5 4 3 3 3 3 4 5 5 6 7 8 6 3 3 4 3 2 3 2 2 2 1 2 2 2 3 5 7 8 10 12 12 13 14 16 17 17
8 7 6 5 5 4 3 3 2 2 1 2 4 5 5 6 7 6 4 3 3 2 1 2 2 2 2 2 2 1 1 2 3 4 6 8 10 12 12 12 12 13 15
7 6 6 5 5 4 3 3 2 2 1 1 2 4 5 6 6 6 3 2 2 2 3 3 2 2 1 1 1 1 2 2 2 3 3 4 6 9 10 11 11 10 10
8 7 6 6 6 5 3 3 3 2 2 2 1 3 5 6 6 6 4 3 3 2 2 2 2 2 1 2 3 1 1 3 2 2 2 3 4 5 6 10 10 10 10
8 8 7 6 6 5 4 3 2 2 1 0 1 2 3 5 6 5 5 4 4 3 3 3 3 3 2 2 2 4 3 3 2 2 1 1 2 3 3 6 8 10 10
8 7 7 6 6 5 5 4 4 3 3 3 3 2 2 3 5 5 5 5 4 3 4 4 3 3 3 2 2 2 3 4 3 1 2 1 1 2 2 3 4 6 8
7 7 6 6 5 5 5 5 4 3 2 1 1 2 2 2 3 4 5 4 4 3 3 3 3 3 3 3 3 2 2 1 2 3 2 2 1 0 1 2 2 3 5
6 6 5 6 5 4 5 5 5 4 3 2 2 2 1 1 1 2 3 3 3 3 3 3 3 3 3 3 3 3 3 2 3 3 3 2 1 1 0 1 1 2 3
Wind_Direction
123 126 117 112 109 107 105 101 98 97 95 94 94 95 97 97 98 98 99 101 102 102 104 105 107 110 113 113 115 117 118 118 118 117 116 117 118 118 116 115 113 113 115
139 128 119 115 112 108 105 102 100 99 98 97 97 98 99 99 100 101 101 102 103 104 106 107 109 111 113 114 116 119 120 120 119 117 115 117 120 120 118 118 117 119 119
128 126 121 118 114 111 108 106 103 101 101 100 101 101 101 102 103 104 104 104 105 106 108 109 110 112 113 115 118 119 120 119 117 115 113 113 117 120 121 120 121 121 121
130 127 124 121 116 113 110 108 106 105 106 106 105 105 104 103 104 106 108 108 107 108 109 109 110 112 113 115 116 117 120 122 120 118 113 114 118 120 121 121 122 122 122
123 125 127 123 119 116 113 111 109 107 107 107 108 108 107 106 106 109 110 110 110 110 111 111 112 113 114 114 113 113 117 122 120 115 112 112 118 123 124 125 125 124 123
123 127 129 126 123 120 118 116 113 112 111 110 110 110 110 110 110 110 111 112 112 112 112 113 113 116 117 116 114 114 119 124 122 118 120 121 125 127 127 128 127 127 126
132 132 133 130 129 126 123 121 119 117 115 113 113 113 114 113 112 113 115 115 114 114 114 115 115 114 115 115 112 109 111 127 126 127 128 129 132 131 130 129 129 129 129
140 139 139 137 136 134 130 127 125 123 121 120 119 118 118 116 113 114 118 119 119 119 118 117 116 115 115 114 111 110 112 126 129 134 134 135 137 136 134 133 134 134 133
141 141 141 142 141 140 137 134 131 129 128 126 125 125 123 122 122 121 122 124 124 124 122 119 119 117 117 116 111 112 118 128 133 138 139 140 142 142 140 140 140 140 139
142 145 145 143 143 144 144 142 139 138 138 136 134 133 130 129 128 127 127 129 129 127 126 124 124 123 120 116 115 116 118 130 137 140 143 150 150 149 148 148 147 146 143
149 154 155 150 151 152 153 152 150 148 148 146 144 141 134 128 130 134 139 136 133 134 135 134 135 135 127 120 124 116 120 132 139 144 152 155 154 154 155 154 153 152 150
159 166 164 166 166 164 162 154 160 159 159 157 156 150 148 147 148 148 151 144 146 146 148 162 172 169 151 126 116 107 123 136 144 152 159 159 160 160 160 160 159 158 157
160 164 166 171 169 167 158 163 174 170 174 179 177 171 162 157 156 151 153 154 164 167 169 210 226 233 219 229 174 142 148 150 152 158 164 166 167 167 166 167 166 165 165
151 158 161 156 157 163 160 169 177 174 181 185 183 178 166 156 156 162 172 183 189 186 196 214 224 230 232 245 211 179 152 154 158 163 171 171 172 172 172 172 172 175 176
148 151 156 147 153 159 155 166 169 174 181 185 176 175 166 162 166 171 180 193 207 204 197 207 224 227 238 249 211 171 154 158 166 171 178 180 181 181 180 180 180 182 182
151 149 148 150 155 148 148 150 158 167 173 168 167 170 168 165 167 171 177 192 209 212 206 203 207 205 209 195 188 170 165 167 172 178 181 186 189 189 189 190 190 191 191
153 147 150 156 155 148 146 150 150 164 165 163 167 170 169 166 166 168 173 187 204 206 205 196 189 177 182 183 183 188 173 178 179 181 183 187 192 197 198 198 199 199 200
150 149 158 157 155 155 143 138 137 154 155 162 165 168 172 172 168 163 167 191 201 190 184 182 173 154 175 185 196 208 187 182 185 187 188 191 194 199 205 207 207 207 208
154 155 159 148 154 154 138 133 127 132 148 165 169 174 180 178 170 167 177 190 189 177 175 187 172 170 181 214 220 218 211 198 196 193 193 196 197 200 204 209 212 213 215
152 154 153 150 157 149 131 117 110 112 143 154 174 186 185 184 179 172 180 187 182 158 176 169 167 175 184 202 224 239 252 223 201 197 200 198 201 206 209 209 212 217 219
149 152 154 153 161 150 143 142 145 167 196 189 201 197 195 193 187 177 175 177 173 176 196 184 159 166 207 171 112 353 338 300 230 214 204 195 197 202 204 204 205 210 218
159 161 159 162 167 170 169 167 166 169 200 205 211 218 209 201 194 189 178 183 187 182 183 182 160 163 214 167 149 129 333 333 321 247 215 207 205 193 194 200 199 202 206
166 171 172 169 167 174 171 145 124 94 60 76 219 238 230 209 199 193 187 184 187 180 193 202 182 172 201 232 176 161 168 222 277 319 283 217 190 186 199 195 198 207 207
177 171 166 169 168 170 162 155 160 167 186 215 206 212 237 218 202 197 197 196 194 187 195 208 192 185 183 216 234 209 188 174 176 272 319 310 204 198 204 204 202 206 207
168 166 168 165 169 171 169 172 168 178 201 210 182 198 236 244 218 211 200 194 195 194 203 205 193 193 188 191 200 205 205 195 173 176 251 297 346 307 196 197 186 182 194
153 154 156 159 170 174 175 176 176 179 179 167 174 186 223 244 248 242 201 188 194 197 202 201 199 199 199 188 190 190 184 187 194 183 212 230 237 291 353 177 174 169 175
Height
1536 1536 1536 1536 1536 1535 1535 1536 1536 1536 1536 1536 1536 1536 1536 1537 1537 1537 1537 1538 1538 1538 1539 1540 1542 1543 1545 1546 1547 1548 1548 1550 1551 1552 1553 1554 1555 1556 1557 1557 1558 1559 1560
1536 1537 1537 1537 1537 1537 1537 1537 1538 1538 1538 1538 1538 1538 1539 1539 1539 1539 1540 1540 1540 1541 1542 1543 1544 1546 1547 1548 1548 1550 1551 1552 1553 1554 1555 1556 1557 1557 1558 1559 1560 1561 1562
1537 1538 1539 1539 1539 1539 1539 1539 1540 1540 1540 1540 1540 1541 1541 1541 1541 1542 1542 1542 1543 1544 1545 1546 1547 1548 1549 1550 1551 1552 1553 1554 1555 1556 1557 1557 1558 1559 1560 1561 1562 1563 1564
1539 1539 1540 1540 1541 1541 1541 1541 1541 1542 1542 1542 1542 1542 1543 1543 1543 1543 1544 1545 1545 1546 1547 1548 1549 1550 1551 1552 1553 1554 1555 1556 1557 1558 1559 1559 1560 1561 1562 1562 1563 1564 1565
1540 1541 1541 1542 1542 1542 1543 1543 1543 1544 1544 1544 1544 1544 1545 1545 1545 1546 1546 1547 1548 1548 1549 1550 1551 1552 1553 1554 1555 1556 1557 1558 1558 1559 1560 1561 1561 1562 1563 1564 1565 1566 1567
1541 1542 1543 1543 1544 1544 1544 1545 1545 1545 1546 1546 1546 1546 1546 1547 1547 1548 1548 1549 1550 1550 1551 1552 1553 1554 1555 1556 1557 1558 1558 1559 1560 1561 1562 1563 1563 1564 1565 1566 1567 1568 1569
1542 1543 1544 1544 1545 1545 1546 1546 1546 1547 1547 1548 1548 1548 1548 1549 1549 1550 1550 1551 1552 1552 1553 1554 1555 1556 1557 1558 1559 1560 1560 1561 1561 1562 1563 1564 1565 1566 1566 1567 1568 1569 1570
1543 1544 1545 1546 1546 1547 1547 1548 1548 1549 1549 1549 1550 1550 1550 1551 1551 1552 1553 1553 1554 1554 1555 1556 1557 1558 1559 1560 1561 1561 1562 1562 1563 1564 1564 1565 1566 1567 1568 1569 1570 1571 1572
1545 1545 1546 1547 1548 1548 1549 1549 1550 1550 1551 1551 1552 1552 1552 1553 1553 1554 1555 1555 1556 1557 1557 1558 1559 1560 1561 1562 1563 1563 1563 1564 1564 1565 1565 1566 1567 1568 1569 1570 1571 1572 1573
1546 1547 1547 1548 1549 1550 1550 1551 1551 1552 1553 1553 1553 1554 1554 1555 1555 1556 1557 1557 1558 1559 1560 1560 1561 1562 1563 1564 1564 1565 1565 1565 1566 1566 1566 1567 1567 1568 1570 1571 1572 1573 1574
1547 1548 1549 1549 1550 1551 1551 1552 1553 1553 1554 1554 1555 1555 1556 1557 1557 1558 1559 1559 1560 1561 1561 1562 1563 1564 1565 1565 1566 1566 1566 1566 1567 1567 1567 1568 1569 1570 1571 1572 1573 1574 1575
1547 1549 1550 1550 1551 1551 1552 1553 1554 1554 1555 1556 1556 1557 1557 1558 1559 1559 1560 1561 1562 1562 1563 1563 1564 1565 1566 1567 1567 1567 1567 1568 1568 1568 1569 1569 1570 1570 1571 1572 1573 1574 1575
1547 1548 1549 1550 1551 1552 1553 1554 1554 1555 1556 1557 1557 1558 1558 1559 1560 1560 1561 1562 1563 1564 1564 1565 1565 1566 1567 1568 1568 1568 1568 1568 1569 1569 1570 1570 1571 1571 1572 1573 1574 1574 1575
1547 1548 1550 1550 1551 1552 1553 1554 1555 1556 1557 1557 1558 1559 1559 1560 1560 1561 1562 1563 1564 1565 1565 1566 1566 1567 1568 1568 1569 1569 1569 1569 1570 1570 1571 1571 1571 1572 1572 1573 1574 1575 1576
1547 1548 1550 1551 1551 1552 1554 1554 1555 1556 1557 1558 1558 1559 1560 1560 1561 1562 1562 1563 1564 1565 1566 1566 1567 1567 1568 1568 1569 1569 1569 1570 1570 1571 1571 1571 1572 1572 1572 1573 1574 1575 1575
1547 1548 1550 1550 1551 1552 1553 1554 1555 1556 1557 1557 1558 1559 1560 1561 1561 1562 1562 1563 1564 1565 1566 1566 1567 1568 1568 1569 1569 1569 1570 1570 1570 1571 1571 1572 1572 1572 1572 1573 1574 1574 1575
1546 1548 1549 1550 1551 1552 1553 1554 1555 1555 1557 1557 1558 1559 1560 1561 1561 1562 1562 1563 1563 1564 1565 1566 1566 1567 1568 1568 1569 1569 1569 1570 1570 1571 1571 1571 1571 1572 1572 1572 1573 1573 1574
1546 1547 1549 1550 1551 1552 1553 1554 1554 1555 1556 1557 1558 1558 1559 1560 1561 1561 1562 1562 1563 1564 1564 1565 1566 1566 1567 1567 1568 1568 1569 1569 1570 1570 1570 1571 1571 1571 1571 1572 1572 1573 1573
1545 1546 1548 1549 1550 1551 1552 1553 1554 1554 1555 1556 1557 1557 1558 1559 1560 1560 1561 1562 1562 1563 1563 1564 1564 1565 1566 1566 1567 1567 1568 1568 1568 1569 1569 1569 1570 1570 1570 1570 1571 1571 1571
1544 1546 1547 1548 1549 1550 1551 1552 1552 1553 1554 1555 1555 1556 1557 1558 1559 1559 1560 1561 1561 1562 1562 1563 1563 1564 1564 1565 1566 1566 1566 1566 1567 1567 1567 1568 1568 1568 1568 1569 1569 1569 1569
1544 1545 1545 1547 1548 1549 1550 1550 1551 1552 1553 1554 1554 1555 1556 1557 1557 1558 1559 1559 1560 1560 1561 1562 1562 1562 1563 1563 1564 1564 1565 1565 1565 1565 1566 1566 1566 1566 1566 1566 1567 1567 1567
1543 1544 1545 1546 1547 1548 1549 1549 1550 1551 1552 1553 1553 1554 1555 1555 1556 1556 1557 1558 1558 1559 1559 1560 1560 1560 1561 1562 1562 1562 1563 1564 1563 1563 1563 1564 1564 1564 1564 1564 1564 1564 1565
1543 1543 1544 1545 1546 1547 1548 1549 1549 1550 1550 1551 1552 1552 1553 1553 1554 1555 1555 1556 1557 1557 1557 1558 1558 1558 1559 1560 1560 1561 1561 1560 1560 1561 1561 1561 1561 1561 1561 1562 1562 1562 1562
1542 1543 1543 1545 1545 1546 1547 1547 1548 1548 1548 1549 1550 1551 1551 1552 1552 1553 1553 1554 1555 1555 1555 1555 1556 1556 1556 1556 1557 1558 1558 1558 1559 1558 1559 1559 1559 1559 1559 1559 1559 1559 1559
1542 1543 1543 1544 1545 1545 1546 1546 1547 1547 1547 1548 1549 1549 1550 1550 1550 1551 1551 1552 1552 1552 1553 1553 1553 1553 1553 1554 1554 1554 1555 1555 1556 1556 1555 1556 1556 1556 1556 1556 1556 1556 1556
1542 1543 1543 1543 1544 1544 1544 1545 1545 1546 1546 1547 1547 1547 1548 1548 1548 1549 1549 1549 1550 1550 1550 1550 1550 1550 1551 1551 1551 1552 1552 1552 1552 1553 1552 1553 1553 1553 1553 1553 1553 1553 1553